D-STAR ONE PHOENIX

Last updated on Fri Nov 16 2018 00:08:36 GMT+0000 (Greenwich Mean Time)

1 43188U 18014J 18319.53613119 .00000072 00000-0 11411-4 0 9990 2 43188 97.7161 225.9851 0011347 12.3534 347.7963 14.96533061 42950
UTC large
Height (km)
Speed (km/s)
/
Latitude / Longitude
Inclination (degrees)
Orbital Period (minutes)
Azimuth
Elevation
Range (km)
Doppler Factor

Next 0 passes for location: London (51.5072 / 0.1276)

Sorry there are no passes over London.